When you browse on this site, cookies collect data to enhance your experience and personalize the content and advertising you see.
Visit our Privacy Policy to learn more. By continuing to use the site, you agree to this use of cookies and data.
  • In Lithuania
  • List of Countries
  • For 7 days
  • Water Temperature
  • Weather Map
  • Weather Widgets
  • user-avatar
    Login

    Hourly Weather Adelaide

    Today, 26 August, Monday

    Time Temperature Precipitation Wind Pressure Humidity
    00:00 +8°C° 0 mm 1 mps 766 mmHg 86%
    01:00 +7°C° 0 mm 1 mps 766 mmHg 86%
    02:00 +7°C° 0 mm 1 mps 766 mmHg 86%
    03:00 +7°C° 0 mm 1 mps 766 mmHg 87%
    04:00 +7°C° 0 mm 1 mps 766 mmHg 87%
    05:00 +7°C° 0 mm 1 mps 766 mmHg 88%
    06:00 +7°C° 0 mm 1 mps 766 mmHg 88%
    07:00 +8°C° 0 mm 1 mps 767 mmHg 82%
    08:00 +10°C° 0 mm 1 mps 767 mmHg 76%
    09:00 +12°C° 0 mm 1 mps 767 mmHg 70%
    10:00 +12°C° 0 mm 2 mps 767 mmHg 68%
    11:00 +13°C° 0 mm 2 mps 767 mmHg 66%
    12:00 +13°C° 0 mm 2 mps 766 mmHg 63%
    13:00 +13°C° 0 mm 2 mps 766 mmHg 63%
    14:00 +13°C° 0 mm 2 mps 766 mmHg 63%
    15:00 +13°C° 0 mm 2 mps 765 mmHg 63%
    16:00 +12°C° 0 mm 2 mps 765 mmHg 68%
    17:00 +10°C° 0 mm 2 mps 765 mmHg 73%
    18:00 +8°C° 0 mm 2 mps 766 mmHg 78%
    19:00 +9°C° 0 mm 1 mps 766 mmHg 79%
    20:00 +9°C° 0 mm 1 mps 766 mmHg 80%
    21:00 +8°C° 0 mm 1 mps 767 mmHg 82%
    22:00 +8°C° 0 mm 1 mps 767 mmHg 83%
    23:00 +8°C° 0 mm 1 mps 767 mmHg 84%

    Tomorrow, 27 August, Tuesday

    Time Temperature Precipitation Wind Pressure Humidity
    00:00 +8°C° 0 mm 1 mps 766 mmHg 85%
    01:00 +7°C° 0 mm 1 mps 766 mmHg 86%
    02:00 +7°C° 0 mm 1 mps 766 mmHg 87%
    03:00 +7°C° 0 mm 1 mps 766 mmHg 87%
    04:00 +7°C° 0 mm 1 mps 766 mmHg 88%
    05:00 +7°C° 0 mm 1 mps 766 mmHg 89%
    06:00 +6°C° 0 mm 2 mps 766 mmHg 90%
    07:00 +8°C° 0 mm 2 mps 766 mmHg 85%
    08:00 +9°C° 0 mm 2 mps 767 mmHg 80%
    09:00 +12°C° 0 mm 2 mps 767 mmHg 74%
    10:00 +12°C° 0 mm 2 mps 766 mmHg 71%
    11:00 +12°C° 0 mm 3 mps 766 mmHg 67%
    12:00 +13°C° 0 mm 3 mps 766 mmHg 63%
    13:00 +13°C° 0 mm 3 mps 766 mmHg 63%
    14:00 +13°C° 0 mm 3 mps 765 mmHg 62%
    15:00 +13°C° 0 mm 3 mps 765 mmHg 61%
    16:00 +13°C° 0 mm 2 mps 765 mmHg 70%
    17:00 +10°C° 0 mm 2 mps 765 mmHg 78%
    18:00 +9°C° 0 mm 2 mps 766 mmHg 86%
    19:00 +9°C° 0 mm 2 mps 766 mmHg 87%
    20:00 +9°C° 0 mm 2 mps 766 mmHg 88%
    21:00 +9°C° 0 mm 2 mps 766 mmHg 89%
    22:00 +9°C° 0 mm 3 mps 766 mmHg 88%
    23:00 +9°C° 0 mm 3 mps 766 mmHg 87%

    Day after tomorrow, 28 August, Wednesday

    Time Temperature Precipitation Wind Pressure Humidity
    00:00 +9°C° 0 mm 3 mps 765 mmHg 86%
    01:00 +8°C° 0 mm 4 mps 765 mmHg 86%
    02:00 +8°C° 0 mm 4 mps 765 mmHg 86%
    03:00 +8°C° 0 mm 5 mps 764 mmHg 86%
    04:00 +8°C° 0 mm 5 mps 765 mmHg 85%
    05:00 +9°C° 0 mm 5 mps 765 mmHg 84%
    06:00 +9°C° 0 mm 5 mps 765 mmHg 83%
    07:00 +10°C° 0.1 mm 5 mps 765 mmHg 80%
    08:00 +10°C° 0.1 mm 6 mps 765 mmHg 78%
    09:00 +11°C° 0.1 mm 6 mps 765 mmHg 76%
    10:00 +11°C° 0.1 mm 6 mps 765 mmHg 76%
    11:00 +11°C° 0.1 mm 6 mps 764 mmHg 75%
    12:00 +13°C° 0.1 mm 6 mps 764 mmHg 75%
    13:00 +11°C° 0.8 mm 6 mps 764 mmHg 80%
    14:00 +10°C° 0.8 mm 6 mps 764 mmHg 85%
    15:00 +10°C° 0.8 mm 5 mps 764 mmHg 91%
    16:00 +9°C° 0.1 mm 5 mps 765 mmHg 89%
    17:00 +8°C° 0.1 mm 5 mps 765 mmHg 86%
    18:00 +8°C° 0.1 mm 5 mps 766 mmHg 84%
    19:00 +7°C° 0 mm 4 mps 767 mmHg 84%
    20:00 +6°C° 0 mm 4 mps 767 mmHg 83%
    21:00 +6°C° 0 mm 4 mps 768 mmHg 82%
    22:00 +5°C° 0 mm 4 mps 768 mmHg 82%
    23:00 +5°C° 0 mm 3 mps 768 mmHg 82%

    29 August, Thursday

    Time Temperature Precipitation Wind Pressure Humidity
    00:00 +4°C° 0 mm 3 mps 768 mmHg 81%
    01:00 +4°C° 0 mm 3 mps 768 mmHg 81%
    02:00 +3°C° 0 mm 3 mps 768 mmHg 82%
    03:00 +3°C° 0 mm 3 mps 768 mmHg 82%
    04:00 +2°C° 0 mm 3 mps 769 mmHg 82%
    05:00 +2°C° 0 mm 3 mps 769 mmHg 82%
    06:00 +3°C° 0 mm 2 mps 769 mmHg 82%
    07:00 +5°C° 0 mm 2 mps 769 mmHg 76%
    08:00 +6°C° 0 mm 2 mps 770 mmHg 70%
    09:00 +8°C° 0 mm 2 mps 770 mmHg 64%
    10:00 +9°C° 0 mm 2 mps 770 mmHg 59%
    11:00 +12°C° 0 mm 2 mps 769 mmHg 53%
    12:00 +13°C° 0 mm 2 mps 769 mmHg 48%
    13:00 +13°C° 0 mm 2 mps 769 mmHg 49%
    14:00 +13°C° 0 mm 2 mps 768 mmHg 51%
    15:00 +13°C° 0 mm 2 mps 768 mmHg 53%
    16:00 +11°C° 0 mm 3 mps 768 mmHg 60%
    17:00 +9°C° 0 mm 3 mps 768 mmHg 67%
    18:00 +8°C° 0 mm 3 mps 768 mmHg 74%
    19:00 +7°C° 0 mm 3 mps 768 mmHg 75%
    20:00 +7°C° 0 mm 3 mps 768 mmHg 75%
    21:00 +5°C° 0 mm 3 mps 768 mmHg 75%
    22:00 +5°C° 0 mm 3 mps 768 mmHg 76%
    23:00 +5°C° 0 mm 3 mps 768 mmHg 76%

    30 August, Friday

    Time Temperature Precipitation Wind Pressure Humidity
    00:00 +5°C° 0 mm 3 mps 768 mmHg 77%
    01:00 +5°C° 0 mm 3 mps 767 mmHg 77%
    02:00 +5°C° 0 mm 3 mps 767 mmHg 78%
    03:00 +5°C° 0 mm 3 mps 767 mmHg 78%
    04:00 +4°C° 0 mm 3 mps 767 mmHg 78%
    05:00 +4°C° 0 mm 3 mps 767 mmHg 78%
    06:00 +4°C° 0 mm 3 mps 767 mmHg 79%
    07:00 +6°C° 0 mm 4 mps 767 mmHg 72%
    08:00 +8°C° 0 mm 4 mps 767 mmHg 65%
    09:00 +10°C° 0 mm 5 mps 767 mmHg 58%
    10:00 +12°C° 0 mm 4 mps 766 mmHg 55%
    11:00 +14°C° 0 mm 4 mps 765 mmHg 52%
    12:00 +15°C° 0 mm 4 mps 765 mmHg 49%
    13:00 +15°C° 0 mm 4 mps 764 mmHg 50%
    14:00 +17°C° 0 mm 4 mps 763 mmHg 50%
    15:00 +17°C° 0 mm 3 mps 763 mmHg 51%
    16:00 +16°C° 0 mm 3 mps 763 mmHg 55%
    17:00 +14°C° 0 mm 2 mps 763 mmHg 59%
    18:00 +13°C° 0 mm 2 mps 763 mmHg 63%
    19:00 +12°C° 0 mm 2 mps 763 mmHg 61%
    20:00 +11°C° 0 mm 3 mps 763 mmHg 59%
    21:00 +11°C° 0 mm 4 mps 763 mmHg 57%
    22:00 +11°C° 0 mm 4 mps 763 mmHg 52%
    23:00 +10°C° 0 mm 5 mps 763 mmHg 48%

    31 August, Saturday

    Time Temperature Precipitation Wind Pressure Humidity
    00:00 +10°C° 0 mm 5 mps 762 mmHg 43%
    01:00 +10°C° 0 mm 5 mps 762 mmHg 45%
    02:00 +10°C° 0 mm 5 mps 762 mmHg 46%
    03:00 +10°C° 0 mm 6 mps 762 mmHg 47%
    04:00 +10°C° 0 mm 5 mps 762 mmHg 47%
    05:00 +10°C° 0 mm 5 mps 762 mmHg 48%
    06:00 +10°C° 0 mm 5 mps 762 mmHg 48%
    07:00 +12°C° 0 mm 5 mps 762 mmHg 48%
    08:00 +14°C° 0 mm 6 mps 762 mmHg 49%
    09:00 +15°C° 0 mm 6 mps 762 mmHg 49%
    10:00 +16°C° 0 mm 6 mps 762 mmHg 48%
    11:00 +16°C° 0 mm 6 mps 761 mmHg 47%
    12:00 +17°C° 0 mm 6 mps 760 mmHg 47%
    13:00 +19°C° 0 mm 6 mps 760 mmHg 46%
    14:00 +19°C° 0 mm 6 mps 759 mmHg 46%
    15:00 +19°C° 0 mm 6 mps 759 mmHg 46%
    16:00 +17°C° 0 mm 5 mps 759 mmHg 45%
    17:00 +16°C° 0 mm 5 mps 759 mmHg 43%
    18:00 +17°C° 0 mm 4 mps 759 mmHg 42%
    19:00 +15°C° 0 mm 4 mps 759 mmHg 42%
    20:00 +15°C° 0 mm 4 mps 759 mmHg 41%
    21:00 +16°C° 0 mm 3 mps 759 mmHg 41%
    22:00 +16°C° 0 mm 3 mps 759 mmHg 41%
    23:00 +16°C° 0 mm 3 mps 759 mmHg 41%
    Show more